CW5112 Weather Reports


time (UTC)temp
C
wind
direction
speed
KPH
gust
KPH
rain 1hr
cm
rain 24hr
cm
rain mn
cm
humidity
%
barometer
mb
20260504044522 11 287 0.0 0.0 0.00 0.00 0.00 57 1015.8
20260504043019 11 287 0.0 0.0 0.00 0.00 0.00 48 1015.6
20260504041518 10 287 0.0 0.0 0.00 0.00 0.00 49 1015.5
20260504040034 10 287 0.0 0.0 0.00 0.00 0.00 50 1015.8
20260504034514 10 287 0.0 0.0 0.00 0.00 0.00 48 1015.7
20260504033014 10 285 0.0 0.0 0.00 0.00 0.00 49 1015.7
20260504031514 10 285 0.0 0.0 0.00 0.00 0.00 47 1015.7
20260504030013 10 285 0.0 0.0 0.00 0.00 0.00 47 1015.8
20260504024512 10 285 0.0 0.0 0.00 0.00 0.00 49 1015.8
20260504023011 11 285 0.0 0.0 0.00 0.00 0.00 46 1015.9
20260504021510 11 285 0.0 0.0 0.00 0.00 0.00 44 1015.7
20260504020011 11 285 0.0 0.0 0.00 0.00 0.00 41 1015.5
20260504014521 11 285 0.0 0.0 0.00 0.00 0.00 41 1015.5
20260504013009 11 285 0.0 0.0 0.00 0.00 0.00 41 1015.2
20260504011509 11 285 0.0 0.0 0.00 0.00 0.00 42 1015.0
20260504010009 12 285 0.0 0.0 0.00 0.00 0.00 41 1015.0
20260504004508 12 285 0.0 0.0 0.00 0.00 0.00 42 1014.9
20260504003010 12 285 0.0 0.0 0.00 0.00 0.00 42 1014.8
20260504001507 12 289 0.0 0.0 0.00 0.00 0.00 42 1014.8
20260504000006 13 292 0.0 0.0 0.00 0.00 0.00 40 1014.8
20260503234507 15 212 0.0 0.0 0.00 0.00 0.00 36 1014.8
20260503233005 16 51 0.0 0.0 0.00 0.00 0.00 35 1014.9
20260503231505 17 229 0.0 0.0 0.00 0.00 0.00 33 1014.8
20260503230005 17 22 0.0 0.0 0.00 0.00 0.00 31 1014.7
20260503224507 16 228 0.0 0.0 0.00 0.00 0.00 29 1014.7
20260503223003 17 348 0.0 0.0 0.00 0.00 0.00 28 1014.8
20260503221503 17 205 0.0 0.0 0.00 0.00 0.00 31 1014.9
20260503220003 17 263 0.0 0.0 0.00 0.00 0.00 29 1015.0
20260503214503 17 265 0.0 1.6 0.00 0.00 0.00 28 1015.1
20260503213002 17 163 0.0 9.7 0.00 0.00 0.00 29 1015.1
20260503211501 18 267 0.0 1.6 0.00 0.00 0.00 29 1015.2
20260503210001 18 251 0.0 1.6 0.00 0.00 0.00 30 1015.2
20260503204601 17 221 0.0 8.0 0.00 0.00 0.00 29 1015.2
20260503203100 17 209 0.0 4.8 0.00 0.00 0.00 30 1015.5
20260503201559 18 237 0.0 1.6 0.00 0.00 0.00 27 1015.6
20260503200101 18 316 0.0 0.0 0.00 0.00 0.00 30 1016.0
20260503194556 17 215 0.0 0.0 0.00 0.00 0.00 30 1016.2
20260503193102 17 271 0.0 0.0 0.00 0.00 0.00 29 1016.4
20260503191558 17 240 0.0 12.9 0.00 0.00 0.00 32 1016.5
20260503190053 16 255 0.0 0.0 0.00 0.00 0.00 31 1016.8
20260503184546 16 333 0.0 6.4 0.00 0.00 0.00 32 1017.2
20260503183105 16 259 0.0 3.2 0.00 0.00 0.00 34 1017.2
20260503181603 16 334 0.0 14.5 0.00 0.00 0.00 36 1017.5
20260503180042 15 265 0.0 8.0 0.00 0.00 0.00 35 1017.5
20260503174538 14 226 0.0 1.6 0.00 0.00 0.00 37 1017.7
20260503173036 15 236 0.0 6.4 0.00 0.00 0.00 38 1017.9
20260503171536 14 230 0.0 1.6 0.00 0.00 0.00 39 1018.1
20260503090105 4 41 0.0 0.0 0.00 0.00 0.00 70 1016.0
20260503081555 4 5 0.0 0.0 0.00 0.00 0.00 72 1015.6
20260503071556 5 5 0.0 0.0 0.00 0.00 0.00 73 1015.1
20260503070108 4 5 0.0 0.0 0.00 0.00 0.00 76 1015.1